When you browse on this site, cookies collect data to enhance your experience and personalize the content and advertising you see.
Visit our Privacy Policy to learn more. By continuing to use the site, you agree to this use of cookies and data.
  • In Deutschland
  • Länderverzeichnis
  • Für 7 Tage
  • Wassertemperatur
  • Wetterkarte
  • Widgets
  • user-avatar
    Anmelden

    Stündliche Wetter Jaú

    Heute, 17 September, Dienstag

    Zeit Temperatur Niederschläge Wind Luftdruck Luftfeuchtigkeit
    00:00 +36°C° 0 mm 3 m/S 753 mmHg 57%
    01:00 +36°C° 0 mm 3 m/S 753 mmHg 59%
    02:00 +36°C° 0 mm 3 m/S 752 mmHg 61%
    03:00 +35°C° 0 mm 2 m/S 752 mmHg 65%
    04:00 +35°C° 0 mm 2 m/S 753 mmHg 65%
    05:00 +34°C° 0 mm 1 m/S 753 mmHg 66%
    06:00 +34°C° 0 mm 1 m/S 754 mmHg 66%
    07:00 +35°C° 0 mm 2 m/S 754 mmHg 63%
    08:00 +36°C° 0 mm 2 m/S 754 mmHg 61%
    09:00 +36°C° 0 mm 2 m/S 754 mmHg 57%
    10:00 +37°C° 0 mm 2 m/S 754 mmHg 56%
    11:00 +37°C° 0 mm 3 m/S 754 mmHg 54%
    12:00 +37°C° 0 mm 3 m/S 753 mmHg 52%
    13:00 +37°C° 0 mm 3 m/S 753 mmHg 52%
    14:00 +38°C° 0 mm 2 m/S 752 mmHg 52%
    15:00 +38°C° 0 mm 2 m/S 752 mmHg 54%
    16:00 +38°C° 0 mm 2 m/S 752 mmHg 53%
    17:00 +37°C° 0 mm 2 m/S 752 mmHg 53%
    18:00 +37°C° 0 mm 3 m/S 752 mmHg 53%
    19:00 +37°C° 0 mm 2 m/S 752 mmHg 55%
    20:00 +35°C° 0 mm 1 m/S 752 mmHg 58%
    21:00 +35°C° 0 mm 1 m/S 752 mmHg 60%
    22:00 +35°C° 0 mm 1 m/S 752 mmHg 59%
    23:00 +35°C° 0 mm 1 m/S 752 mmHg 57%

    Morgen, 18 September, Mittwoch

    Zeit Temperatur Niederschläge Wind Luftdruck Luftfeuchtigkeit
    00:00 +36°C° 0 mm 2 m/S 752 mmHg 55%
    01:00 +35°C° 0 mm 1 m/S 752 mmHg 59%
    02:00 +34°C° 0 mm 1 m/S 752 mmHg 62%
    03:00 +32°C° 0 mm 0 m/S 751 mmHg 65%
    04:00 +34°C° 0 mm 1 m/S 752 mmHg 61%
    05:00 +36°C° 0 mm 2 m/S 752 mmHg 56%
    06:00 +36°C° 0 mm 3 m/S 753 mmHg 52%
    07:00 +36°C° 0 mm 3 m/S 753 mmHg 52%
    08:00 +36°C° 0 mm 3 m/S 753 mmHg 52%
    09:00 +36°C° 0 mm 3 m/S 754 mmHg 52%
    10:00 +37°C° 0 mm 3 m/S 754 mmHg 50%
    11:00 +37°C° 0 mm 2 m/S 753 mmHg 49%
    12:00 +37°C° 0 mm 2 m/S 753 mmHg 47%
    13:00 +38°C° 0 mm 2 m/S 753 mmHg 48%
    14:00 +38°C° 0 mm 2 m/S 752 mmHg 49%
    15:00 +38°C° 0 mm 2 m/S 752 mmHg 49%
    16:00 +37°C° 0 mm 2 m/S 752 mmHg 51%
    17:00 +37°C° 0 mm 3 m/S 752 mmHg 53%
    18:00 +36°C° 0 mm 3 m/S 753 mmHg 55%
    19:00 +36°C° 0 mm 3 m/S 753 mmHg 57%
    20:00 +36°C° 0 mm 3 m/S 753 mmHg 60%
    21:00 +35°C° 0 mm 3 m/S 753 mmHg 62%
    22:00 +35°C° 0 mm 2 m/S 753 mmHg 63%
    23:00 +35°C° 0 mm 2 m/S 753 mmHg 64%

    übermorgen, 19 September, Donnerstag

    Zeit Temperatur Niederschläge Wind Luftdruck Luftfeuchtigkeit
    00:00 +33°C° 0 mm 1 m/S 753 mmHg 65%
    01:00 +33°C° 0 mm 1 m/S 753 mmHg 65%
    02:00 +33°C° 0 mm 1 m/S 753 mmHg 65%
    03:00 +33°C° 0 mm 1 m/S 752 mmHg 65%
    04:00 +33°C° 0 mm 1 m/S 753 mmHg 65%
    05:00 +33°C° 0 mm 1 m/S 753 mmHg 64%
    06:00 +34°C° 0 mm 1 m/S 754 mmHg 63%
    07:00 +34°C° 0 mm 1 m/S 754 mmHg 62%
    08:00 +34°C° 0 mm 1 m/S 754 mmHg 61%
    09:00 +35°C° 0 mm 1 m/S 755 mmHg 60%
    10:00 +35°C° 0 mm 1 m/S 755 mmHg 56%
    11:00 +35°C° 0 mm 1 m/S 754 mmHg 52%
    12:00 +35°C° 0 mm 1 m/S 754 mmHg 49%
    13:00 +37°C° 0 mm 2 m/S 754 mmHg 51%
    14:00 +37°C° 0 mm 2 m/S 753 mmHg 53%
    15:00 +37°C° 0 mm 3 m/S 753 mmHg 55%
    16:00 +37°C° 0 mm 3 m/S 753 mmHg 57%
    17:00 +36°C° 0 mm 3 m/S 753 mmHg 59%
    18:00 +36°C° 0 mm 4 m/S 753 mmHg 61%
    19:00 +36°C° 0 mm 3 m/S 753 mmHg 63%
    20:00 +35°C° 0 mm 3 m/S 754 mmHg 64%
    21:00 +35°C° 0 mm 2 m/S 754 mmHg 65%
    22:00 +35°C° 0 mm 2 m/S 754 mmHg 67%
    23:00 +34°C° 0 mm 1 m/S 754 mmHg 69%

    20 September, Freitag

    Zeit Temperatur Niederschläge Wind Luftdruck Luftfeuchtigkeit
    00:00 +32°C° 0 mm 0 m/S 753 mmHg 70%
    01:00 +35°C° 0 mm 2 m/S 753 mmHg 68%
    02:00 +35°C° 0 mm 3 m/S 753 mmHg 65%
    03:00 +34°C° 0 mm 4 m/S 753 mmHg 62%
    04:00 +34°C° 0 mm 4 m/S 753 mmHg 63%
    05:00 +34°C° 0 mm 3 m/S 753 mmHg 63%
    06:00 +34°C° 0 mm 3 m/S 754 mmHg 63%
    07:00 +35°C° 0 mm 3 m/S 754 mmHg 61%
    08:00 +35°C° 0 mm 2 m/S 754 mmHg 58%
    09:00 +36°C° 0 mm 2 m/S 755 mmHg 56%
    10:00 +36°C° 0 mm 2 m/S 754 mmHg 54%
    11:00 +35°C° 0 mm 1 m/S 754 mmHg 52%
    12:00 +36°C° 0 mm 1 m/S 753 mmHg 50%
    13:00 +37°C° 0 mm 2 m/S 753 mmHg 50%
    14:00 +37°C° 0 mm 2 m/S 752 mmHg 51%
    15:00 +37°C° 0 mm 3 m/S 752 mmHg 51%
    16:00 +37°C° 0 mm 3 m/S 752 mmHg 54%
    17:00 +36°C° 0 mm 4 m/S 752 mmHg 57%
    18:00 +36°C° 0 mm 4 m/S 752 mmHg 59%
    19:00 +36°C° 0 mm 4 m/S 752 mmHg 60%
    20:00 +35°C° 0 mm 4 m/S 753 mmHg 60%
    21:00 +35°C° 0 mm 5 m/S 753 mmHg 61%
    22:00 +35°C° 0 mm 5 m/S 752 mmHg 62%
    23:00 +35°C° 0 mm 4 m/S 752 mmHg 63%

    21 September, Samstag

    Zeit Temperatur Niederschläge Wind Luftdruck Luftfeuchtigkeit
    00:00 +35°C° 0 mm 4 m/S 752 mmHg 64%
    01:00 +35°C° 0 mm 4 m/S 752 mmHg 63%
    02:00 +35°C° 0 mm 4 m/S 751 mmHg 63%
    03:00 +35°C° 0 mm 3 m/S 751 mmHg 63%
    04:00 +35°C° 0 mm 3 m/S 752 mmHg 61%
    05:00 +35°C° 0 mm 3 m/S 752 mmHg 60%
    06:00 +34°C° 0 mm 2 m/S 752 mmHg 58%
    07:00 +35°C° 0 mm 2 m/S 752 mmHg 55%
    08:00 +35°C° 0 mm 2 m/S 753 mmHg 51%
    09:00 +36°C° 0 mm 3 m/S 753 mmHg 48%
    10:00 +36°C° 0 mm 3 m/S 753 mmHg 47%
    11:00 +37°C° 0 mm 3 m/S 752 mmHg 46%
    12:00 +37°C° 0 mm 3 m/S 752 mmHg 46%
    13:00 +38°C° 0 mm 3 m/S 751 mmHg 45%
    14:00 +38°C° 0 mm 3 m/S 751 mmHg 44%
    15:00 +39°C° 0 mm 3 m/S 750 mmHg 43%
    16:00 +38°C° 0 mm 4 m/S 750 mmHg 45%
    17:00 +39°C° 0 mm 5 m/S 750 mmHg 46%
    18:00 +38°C° 0 mm 6 m/S 750 mmHg 48%
    19:00 +37°C° 0 mm 5 m/S 750 mmHg 53%
    20:00 +36°C° 0 mm 5 m/S 751 mmHg 58%
    21:00 +35°C° 0 mm 5 m/S 751 mmHg 63%
    22:00 +35°C° 0 mm 5 m/S 751 mmHg 64%
    23:00 +35°C° 0 mm 4 m/S 751 mmHg 64%

    22 September, Sonntag

    Zeit Temperatur Niederschläge Wind Luftdruck Luftfeuchtigkeit
    00:00 +35°C° 0 mm 3 m/S 751 mmHg 64%
    01:00 +35°C° 0 mm 3 m/S 751 mmHg 64%
    02:00 +35°C° 0 mm 3 m/S 751 mmHg 63%
    03:00 +35°C° 0 mm 3 m/S 751 mmHg 63%
    04:00 +35°C° 0 mm 3 m/S 751 mmHg 61%
    05:00 +35°C° 0 mm 3 m/S 752 mmHg 60%
    06:00 +34°C° 0 mm 4 m/S 752 mmHg 59%
    07:00 +35°C° 0 mm 4 m/S 753 mmHg 56%
    08:00 +35°C° 0 mm 5 m/S 753 mmHg 54%
    09:00 +36°C° 0 mm 6 m/S 754 mmHg 51%
    10:00 +36°C° 0 mm 5 m/S 753 mmHg 50%
    11:00 +37°C° 0 mm 4 m/S 753 mmHg 48%
    12:00 +37°C° 0 mm 4 m/S 752 mmHg 47%
    13:00 +37°C° 0 mm 4 m/S 752 mmHg 49%
    14:00 +37°C° 0 mm 4 m/S 752 mmHg 51%
    15:00 +38°C° 0 mm 4 m/S 751 mmHg 53%
    16:00 +37°C° 0 mm 5 m/S 751 mmHg 56%
    17:00 +38°C° 0 mm 6 m/S 751 mmHg 59%
    18:00 +36°C° 0 mm 7 m/S 751 mmHg 63%
    19:00 +36°C° 0 mm 6 m/S 752 mmHg 66%
    20:00 +35°C° 0 mm 6 m/S 752 mmHg 68%
    21:00 +35°C° 0 mm 5 m/S 753 mmHg 71%
    22:00 +35°C° 0 mm 4 m/S 753 mmHg 70%
    23:00 +34°C° 0 mm 4 m/S 753 mmHg 69%
    Mehr zeigen